Location: Poughquag
(41.6090°N, 73.6820°W)
Time: 05:47:50
(UTC-04:00)

S-56A Canister/Altair - Visible Passes

Search period start: 13 May 2021 00:00
Search period end: 23 May 2021 00:00
Orbit: 631 x 2501 km, 38.9° (Epoch: 12 May)

Date Brightness Start Highest point End Pass type
(mag) Time Alt. Az. Time Alt. Az. Time Alt. Az.
13 May 9.7 20:58:57 10° W 21:13:03 63° SSW 21:21:54 16° SE visible
13 May 10.0 23:07:11 10° W 23:16:58 28° SW 23:19:19 26° SSW visible
14 May 9.9 20:25:10 10° W 20:39:46 67° SSW 20:50:34 10° ESE visible
14 May 10.0 22:33:07 10° W 22:44:08 33° SW 22:48:15 25° S visible
15 May 10.1 21:59:08 10° W 22:11:11 38° SW 22:17:12 22° S visible
16 May 10.2 21:25:12 10° W 21:38:10 43° SW 21:46:10 17° SSE visible
16 May 10.8 23:36:51 10° WSW 23:40:56 12° WSW 23:43:36 11° SW visible
17 May 10.2 20:51:21 10° WNW 21:05:01 48° SW 21:15:11 11° SE visible
17 May 10.7 23:01:28 10° W 23:08:12 16° SW 23:12:36 12° SSW visible
18 May 10.3 20:17:34 10° WNW 20:31:47 53° SSW 20:42:57 10° SE visible
18 May 10.7 22:26:46 10° W 22:35:24 20° SW 22:41:39 12° SSW visible
19 May 10.7 21:52:23 10° W 22:02:31 24° SW 22:10:43 10° S visible
20 May 10.8 21:18:12 10° W 21:29:32 29° SW 21:38:52 10° S visible
21 May 10.8 20:44:11 10° W 20:56:28 33° SW 21:06:42 10° SSE visible
